Airfield :
LOGIN :

Register | Disclaimer

   EN    FR    IT 

 










Legend :    VFR   Marginal VFR   IFR   Intensive IFR   Very Intensive IFR
Visi :
Ceiling :
>= 8 km
>= 3000ft
5 to 8 km
1000 to 3000 ft
1500m to 5 km
500 to 1000 ft
800 to 1500m
200 to 500 ft
< 800m
< 200 ft
Symbols :   Thunderstorms  Fog  Heavy snow  Heavy precipitations  Wind > 20 kt
SIGMETs :     Misc.  Thunderstorms  Icing  Turbulence  Mountain Waves  Volcanic Ashes







- Airport Elevation : 302 ft
- Download approach charts


LFPM - Melun Villaroche

CURRENT METAR :
  • 211530Z AUTO 17007KT CAVOK 20/09 Q1017

EXPIRED METARs :
  • 211500Z AUTO 15005KT CAVOK 20/08 Q1017
  • 211430Z AUTO 16007KT 130V200 CAVOK 21/09 Q1017
  • 211400Z AUTO 16006KT 120V200 CAVOK 20/08 Q1017
  • 211330Z AUTO 15006KT 110V180 CAVOK 20/08 Q1018
  • 211300Z AUTO 17007KT 130V200 CAVOK 20/08 Q1018

Expired Forecast.
ATIS : +33 1 64 14 28 44
No reported NOTAMs for that airfield.



MET'MAP, your aeronautical weather chart ! - Copyright ORBIFLY December 2007 - Disclaimer

ORBIFLY MET'MAP TEAM :

Programming & Development : Alexandra Zaïnal
Concept & Development : Baudouin d'Aumeries
Co-Development & Prog : Marc-Olivier Méhu
Technical & hardware support : Manuel Goepfert

Contact : metmap@orbifly.com




SOURCES & CREDITS :

   NOAA